This demonstration page uses our WeatherBlox Daily Observations layout. Learn more.

Left ArrowRight Arrow

36.17497, -115.13722

Hourly Observations for April 5, 2020

Temp ( °F °C ) Dew Point ( °F °C ) Humidity (%) Winds ( mph kmh ) Pressure ( in mb ) Visibility ( mi km ) Precip ( " mm )
12:53 am 00:53 Clear 65 18.3 31 -0.6 28 28 S 15 24 29.68 1005 10 16 N/A
1:53 am 01:53 Clear 64 17.8 32 undefined 30 30 S 20 31 29.67 1005 10 16 N/A
2:53 am 02:53 Clear 63 17.2 32 undefined 31 31 S 15 24 29.67 1005 10 16 N/A
3:53 am 03:53 Clear 61 16.1 34 1.1 36 36 S 17 28 29.67 1005 10 16 N/A
4:53 am 04:53 Clear 60 15.6 34 1.1 38 38 S 15 24 29.68 1005 10 16 N/A
5:53 am 05:53 Clear 59 15 35 1.7 41 41 S 18 30 29.69 1005 10 16 N/A
6:53 am 06:53 Sunny 59 15 36 2.2 42 42 S 17 28 29.71 1006 10 16 N/A
7:53 am 07:53 Sunny 61 16.1 36 2.2 39 39 S 13 20 29.73 1007 10 16 N/A
8:53 am 08:53 Sunny 63 17.2 36 2.2 37 37 S 16 26 29.74 1007 10 16 N/A
9:53 am 09:53 Sunny 67 19.4 36 2.2 32 32 S 21 33 29.75 1007 10 16 N/A
10:53 am 10:53 Sunny 68 20 35 1.7 30 30 SSE 28 44 29.74 1007 10 16 N/A
11:53 am 11:53 Sunny 70 21.1 34 1.1 27 27 S 17 28 29.75 1007 10 16 N/A
12:53 pm 12:53 Sunny 72 22.2 32 undefined 23 23 S 20 31 29.73 1007 10 16 N/A
1:53 pm 13:53 Sunny 73 22.8 31 -0.6 21 21 S 21 33 29.71 1006 10 16 N/A
2:53 pm 14:53 Sunny 74 23.3 30 -1.1 20 20 SSW 17 28 29.67 1005 10 16 N/A
3:53 pm 15:53 Sunny 74 23.3 31 -0.6 20 20 S 20 31 29.65 1004 10 16 N/A
4:53 pm 16:53 Sunny 75 23.9 30 -1.1 19 19 SSW 15 24 29.64 1004 10 16 N/A
5:53 pm 17:53 Sunny 74 23.3 31 -0.6 20 20 SW 15 24 29.65 1004 10 16 N/A
6:53 pm 18:53 Cloudy 71 21.7 33 0.6 25 25 WSW 14 22 29.66 1004 10 16 N/A
7:53 pm 19:53 Mostly Cloudy 71 21.7 31 -0.6 23 23 S 15 24 29.67 1005 10 16 N/A
8:53 pm 20:53 Cloudy 70 21.1 32 undefined 25 25 S 15 24 29.67 1005 10 16 N/A
9:53 pm 21:53 Clear 67 19.4 37 2.8 33 33 SSW 15 24 29.70 1006 10 16 N/A
10:53 pm 22:53 Clear 65 18.3 37 2.8 36 36 SSW 18 30 29.71 1006 10 16 N/A
11:53 pm 23:53 Clear 63 17.2 37 2.8 38 38 SSW 13 20 29.74 1007 10 16 N/A

Powered by AerisWeather